Temperature
11 11 10 11 11 9 9 9 10 10 10 13 12 11 13 14 14 13 13 13 13 13 12 11 11 10 9 9 8 8 7 6 6 5 5 4 4 3 3 2 2 2 1 1
11 11 10 10 10 10 9 10 9 10 11 12 12 13 12 13 12 12 13 13 13 13 12 11 11 10 9 9 8 7 7 6 5 5 4 4 3 3 2 2 1 1 1 0
9 10 11 10 10 10 9 9 9 10 12 12 11 10 11 12 12 12 13 13 12 12 12 11 10 10 9 8 7 7 6 5 5 4 4 3 3 2 2 1 1 1 0 -0
8 10 10 11 11 11 10 10 9 9 10 10 10 11 11 12 12 12 12 12 12 11 11 10 10 9 8 7 7 6 5 5 4 4 3 3 2 2 1 1 0 0 -0 -1
7 8 9 10 10 10 10 10 9 9 9 9 9 9 10 12 12 12 12 11 11 10 10 9 9 8 7 7 6 5 5 4 4 3 3 2 2 1 1 0 -0 -1 -1 -1
6 8 9 11 11 11 11 10 11 9 9 8 8 8 9 12 11 11 11 10 10 10 9 8 8 7 6 6 5 5 4 4 3 2 2 1 1 0 0 -1 -1 -1 -1 -2
6 7 8 9 10 10 11 11 12 11 10 9 8 10 11 11 11 10 10 9 9 9 8 7 7 6 6 5 4 4 3 3 2 2 1 1 0 -0 -1 -1 -2 -2 -2 -2
6 7 9 9 9 9 11 12 12 12 12 11 11 11 11 10 10 9 9 8 8 7 7 6 6 5 5 4 3 3 2 2 2 1 1 0 -0 -1 -1 -2 -2 -3 -3 -3
8 10 10 10 11 12 13 12 13 13 13 12 11 11 10 9 9 8 8 7 7 6 6 5 5 4 4 3 3 2 2 1 1 0 -0 -1 -1 -2 -2 -3 -3 -4 -4 -5
6 7 9 11 11 12 12 13 13 12 12 11 11 10 9 9 8 7 7 6 6 5 5 5 4 3 3 2 2 1 1 1 0 -0 -1 -1 -2 -2 -3 -3 -4 -5 -5 -6
6 7 8 10 12 13 13 12 12 11 11 11 10 9 9 8 7 6 6 5 5 4 4 4 3 3 2 1 1 0 0 -0 -1 -1 -2 -2 -2 -3 -4 -4 -5 -6 -6 -6
9 9 8 11 13 13 12 12 11 11 10 9 9 8 7 7 6 5 5 4 4 3 3 3 2 2 1 1 0 -0 -1 -1 -2 -2 -3 -3 -4 -4 -4 -5 -5 -6 -7 -7
12 12 12 12 12 11 11 11 10 10 9 8 8 7 6 6 5 5 4 3 3 3 2 2 1 1 1 0 -0 -1 -2 -2 -3 -3 -4 -4 -5 -5 -6 -5 -6 -7 -7 -7
11 10 10 10 10 10 10 9 9 8 7 7 6 6 5 5 4 4 3 3 2 2 1 1 1 0 -0 -1 -1 -2 -2 -3 -3 -4 -4 -5 -5 -6 -7 -7 -7 -7 -7 -8
10 9 9 9 9 8 8 8 7 6 6 5 5 4 4 4 3 3 2 2 1 1 1 0 -0 -0 -1 -2 -2 -3 -3 -3 -4 -5 -5 -6 -6 -7 -7 -8 -8 -8 -8 -8
8 8 8 7 7 7 6 6 6 5 5 4 4 3 3 2 2 2 1 1 1 0 0 -0 -1 -1 -2 -2 -3 -3 -4 -5 -5 -6 -6 -7 -7 -8 -8 -8 -9 -9 -9 -9
6 6 6 5 6 5 5 5 5 4 3 3 3 2 2 2 1 1 1 0 -0 -0 -1 -1 -2 -2 -3 -3 -4 -5 -5 -6 -6 -7 -7 -7 -8 -8 -9 -9 -9 -10 -10 -10
6 7 6 6 5 5 4 4 3 3 2 2 2 1 1 1 1 0 -0 -1 -1 -1 -1 -2 -3 -3 -4 -4 -5 -6 -6 -7 -7 -7 -8 -8 -8 -9 -9 -9 -10 -10 -10 -10
5 5 4 4 4 4 3 3 2 2 1 1 1 1 0 -0 -0 -1 -1 -1 -2 -2 -2 -3 -4 -4 -5 -5 -6 -6 -7 -7 -8 -8 -8 -9 -9 -9 -9 -10 -10 -10 -11 -11
3 3 3 3 2 2 2 2 1 1 1 0 0 -0 -0 -1 -1 -2 -2 -2 -3 -3 -4 -4 -5 -5 -6 -6 -7 -7 -8 -8 -8 -9 -9 -9 -10 -10 -10 -11 -11 -11 -11 -11
2 2 2 2 1 1 1 1 0 0 -0 -0 -1 -1 -1 -2 -2 -3 -3 -3 -3 -4 -5 -5 -6 -6 -7 -7 -8 -8 -8 -9 -9 -9 -10 -10 -10 -11 -11 -11 -12 -12 -12 -12
1 1 1 1 1 0 0 -0 -0 -1 -1 -1 -2 -2 -2 -3 -3 -3 -4 -4 -5 -5 -6 -6 -7 -7 -8 -8 -9 -9 -9 -10 -10 -10 -11 -11 -11 -12 -12 -12 -12 -12 -12 -12
1 0 0 0 -0 -0 -1 -1 -1 -1 -2 -2 -3 -3 -3 -4 -4 -5 -5 -5 -6 -6 -7 -7 -8 -8 -9 -9 -9 -10 -10 -10 -11 -11 -11 -11 -12 -12 -12 -12 -12 -12 -13 -13
-0 -0 -1 -1 -1 -1 -1 -2 -2 -2 -3 -3 -3 -4 -4 -5 -5 -5 -6 -6 -7 -7 -8 -8 -8 -9 -9 -10 -10 -10 -10 -11 -11 -11 -12 -12 -12 -12 -12 -13 -13 -13 -13 -13
-1 -1 -1 -2 -2 -2 -2 -3 -3 -3 -3 -4 -4 -4 -5 -6 -6 -6 -7 -7 -7 -8 -8 -8 -9 -9 -10 -10 -10 -11 -11 -11 -12 -12 -12 -12 -12 -13 -13 -13 -13 -13 -13 -13
-2 -2 -2 -2 -3 -3 -3 -4 -4 -4 -4 -5 -5 -5 -6 -6 -7 -7 -8 -8 -8 -9 -9 -9 -10 -10 -10 -11 -11 -11 -12 -12 -12 -12 -12 -12 -13 -13 -13 -13 -13 -13 -13 -13
-3 -3 -3 -3 -4 -4 -4 -4 -5 -5 -6 -6 -6 -6 -7 -7 -8 -8 -9 -9 -9 -10 -10 -10 -11 -11 -11 -12 -12 -12 -12 -12 -12 -12 -13 -13 -13 -13 -13 -13 -13 -13 -13 -13
Wind_Speed
7 5 6 8 9 10 12 12 12 12 14 19 13 11 10 8 6 6 6 6 8 9 9 8 8 8 8 7 6 6 6 5 6 5 5 5 5 6 6 6 7 7 8 9
4 4 6 7 10 11 13 11 12 13 16 15 9 7 8 8 7 8 8 8 8 8 8 9 10 9 8 7 7 6 6 6 5 4 4 5 6 6 6 7 7 7 8 9
4 2 1 8 12 13 9 10 11 15 17 10 6 8 8 8 8 8 8 7 7 8 9 9 9 9 9 7 6 5 5 5 4 4 5 6 6 6 7 7 7 8 9 10
3 3 8 10 5 9 10 11 12 11 11 8 8 6 5 6 7 7 6 6 6 6 6 6 6 6 5 5 5 5 4 4 4 5 6 6 6 7 8 7 8 9 10 11
5 6 9 10 7 8 9 10 10 13 12 7 2 2 5 4 5 6 4 4 4 4 5 5 6 6 6 4 4 4 4 5 5 5 6 6 7 8 8 7 9 9 10 11
5 5 8 9 4 5 4 8 7 9 9 6 6 2 5 2 2 2 2 3 3 4 5 5 5 6 6 4 4 5 5 5 5 5 6 7 8 8 8 8 10 10 11 10
6 7 9 9 4 7 5 9 4 7 8 9 9 7 3 2 2 3 3 4 4 5 5 4 4 5 4 3 5 5 4 4 5 6 6 7 8 7 8 9 10 10 12 11
7 6 11 7 9 10 10 3 4 5 6 8 7 3 3 3 3 4 4 4 5 5 4 3 4 4 3 4 4 3 3 5 6 6 7 7 7 8 8 9 10 11 11 12
11 11 6 8 10 7 4 5 5 5 6 7 6 5 5 4 4 4 4 4 3 4 3 2 2 3 4 4 3 3 4 6 6 7 7 7 8 9 8 8 9 10 10 12
6 9 8 8 7 6 6 7 5 5 5 7 7 6 6 5 4 4 3 3 3 3 2 2 2 3 4 4 3 3 5 6 6 7 8 7 7 7 8 8 9 10 11 12
7 8 6 8 9 10 7 5 4 4 4 6 7 6 6 5 5 4 3 3 3 3 3 3 2 3 4 4 3 5 6 7 7 7 8 8 8 8 10 9 11 12 11 11
10 9 8 7 5 6 7 7 7 6 4 3 5 6 5 4 4 4 3 3 2 2 3 3 3 4 5 4 4 5 6 7 6 7 7 8 9 11 15 16 22 23 23 22
7 3 5 3 1 3 5 5 5 6 6 5 4 5 5 4 3 3 3 2 3 3 3 4 4 5 6 5 5 6 7 8 7 7 8 9 9 11 13 15 19 21 23 25
4 3 3 4 3 3 4 5 6 6 5 5 5 5 5 4 3 3 2 2 2 3 4 4 5 7 6 6 6 7 8 10 10 8 8 9 10 10 11 13 14 12 15 22
4 5 5 4 4 5 5 7 7 6 5 5 4 5 4 3 2 2 1 1 1 3 4 5 6 8 6 6 7 8 8 7 8 8 9 9 10 11 11 13 14 14 12 14
3 4 5 6 6 6 6 7 7 6 5 4 4 3 3 2 1 1 1 1 2 5 6 6 7 7 7 6 7 7 8 14 14 10 9 10 10 11 12 12 13 13 13 12
7 6 6 6 6 6 5 5 7 6 5 4 3 3 2 1 1 2 3 3 4 5 6 7 8 8 7 7 8 7 8 11 16 13 10 11 11 11 12 12 13 14 13 15
6 6 7 8 8 8 6 6 6 6 4 3 3 2 1 0 2 4 4 5 5 6 7 7 7 8 7 7 7 7 8 9 9 10 11 11 12 11 11 12 14 15 14 15
6 7 7 8 8 8 7 6 5 4 3 3 2 1 1 2 3 4 4 5 6 8 7 6 12 10 8 10 12 8 9 11 12 11 11 16 15 11 12 13 14 14 14 14
7 8 9 9 8 7 7 5 5 4 2 2 1 0 2 3 4 4 5 6 6 7 7 9 9 8 8 10 15 9 10 11 12 12 12 12 12 13 12 13 14 14 14 14
9 9 9 9 8 7 6 5 4 3 1 1 1 1 3 4 4 4 5 7 7 7 8 13 9 8 8 12 16 9 10 10 11 11 12 13 13 14 14 14 14 14 14 14
8 8 8 8 7 6 4 3 3 2 1 1 1 2 3 5 5 5 6 7 8 12 10 7 7 12 16 18 9 9 10 11 11 11 12 12 13 14 14 14 14 15 14 14
7 7 7 6 6 4 3 3 2 1 0 1 3 3 4 5 5 6 8 6 6 13 11 8 14 21 24 14 8 9 10 11 12 12 12 13 13 14 14 15 15 14 14 14
7 7 6 5 5 4 3 2 2 1 2 3 3 4 5 5 6 5 6 12 15 17 10 14 21 23 22 9 8 10 11 11 12 12 13 13 13 13 14 14 15 14 15 16
6 6 5 5 4 2 1 1 2 2 3 3 4 5 4 4 6 7 7 9 15 16 11 14 21 22 14 10 11 11 12 12 14 14 13 13 14 14 14 14 15 15 15 15
5 4 3 2 1 1 0 1 2 3 4 5 5 5 5 5 6 7 7 9 11 15 12 10 11 14 11 11 12 13 12 14 15 14 14 15 15 15 15 15 16 15 15 15
4 3 3 2 2 1 1 1 2 4 4 5 7 7 6 7 7 8 9 9 10 10 10 10 10 11 11 12 12 13 13 13 13 14 14 14 14 14 15 16 15 15 15 15
Wind_Direction
223 210 179 202 207 191 201 210 221 239 243 258 259 254 259 261 255 244 234 217 206 203 198 190 187 188 187 187 183 177 180 197 216 225 233 244 254 261 264 265 269 269 274 276
241 230 214 237 236 217 219 225 234 253 263 260 262 252 258 256 243 239 236 225 213 202 193 192 192 191 187 187 185 177 189 209 220 229 242 251 258 264 269 272 273 273 274 276
236 271 346 259 229 218 216 213 205 234 250 263 259 252 252 253 242 234 235 227 212 203 199 197 193 187 187 186 175 179 197 215 227 236 249 257 265 270 272 273 273 276 275 275
165 129 237 244 223 208 221 239 220 234 251 252 246 256 259 244 232 235 229 222 212 197 190 185 173 169 164 159 170 185 204 226 238 242 253 263 268 270 272 271 272 276 277 277
157 213 267 288 254 197 206 257 227 227 246 250 233 306 289 245 216 215 214 204 193 181 169 156 157 155 149 159 172 193 217 235 244 246 257 266 269 271 273 275 277 277 277 277
155 196 239 246 234 164 138 274 247 205 225 209 148 216 266 240 162 163 148 142 143 134 130 141 148 144 150 170 188 218 231 242 250 252 256 263 266 271 272 272 278 282 281 276
182 219 255 249 186 132 181 245 238 190 200 179 190 209 209 138 126 125 120 120 125 125 130 145 144 142 162 189 221 234 244 255 261 260 259 263 266 269 274 279 283 283 283 281
170 204 249 213 150 185 216 217 189 190 189 188 202 190 166 160 146 131 122 118 125 127 129 135 142 150 183 228 240 248 256 263 266 265 269 277 271 276 276 279 285 286 288 288
193 215 236 182 200 217 191 199 203 194 196 180 185 195 185 172 161 151 145 139 133 135 134 143 164 173 210 242 252 261 268 269 270 272 268 268 269 277 282 277 280 287 288 291
228 253 245 230 234 238 213 212 213 196 185 175 185 187 179 171 166 161 154 149 140 138 156 211 223 223 231 252 262 263 269 273 275 275 277 271 270 272 275 278 280 284 287 289
236 261 280 259 229 225 218 206 198 190 185 184 176 179 176 175 176 172 161 154 154 173 206 240 256 265 265 262 262 268 271 275 278 275 274 278 273 267 273 265 269 281 283 283
224 221 205 233 227 196 191 200 192 178 172 166 169 170 161 168 169 163 163 159 171 205 235 258 270 278 279 272 263 267 280 278 278 278 279 280 285 289 281 279 286 288 289 290
223 214 201 228 211 171 182 187 173 167 165 153 144 146 148 151 154 152 160 178 207 232 251 265 274 278 278 275 270 266 272 280 282 280 282 284 286 290 296 296 291 291 292 294
207 172 209 213 201 162 145 131 120 114 116 123 126 123 125 127 134 156 195 220 236 254 266 268 272 275 276 275 274 271 273 282 286 280 279 281 283 285 288 293 299 296 293 293
217 203 197 160 129 123 123 121 118 117 114 105 107 117 125 135 164 212 244 253 266 273 274 274 276 279 280 277 276 276 278 279 280 279 279 280 283 285 286 287 290 293 295 294
158 131 138 142 146 139 132 134 136 140 133 124 120 124 131 140 168 266 283 270 272 280 283 282 280 281 284 281 280 281 280 287 293 289 286 286 286 286 288 288 290 291 291 293
156 168 166 162 163 154 149 146 145 143 137 135 139 129 112 95 348 305 297 287 272 272 275 277 279 285 285 280 278 281 282 288 293 293 286 286 286 285 285 286 288 290 289 291
180 177 168 161 157 147 136 128 128 130 134 138 123 110 103 245 280 289 296 303 303 296 284 275 277 285 281 278 280 280 282 284 285 285 287 286 286 284 285 287 288 289 291 293
128 128 127 128 132 131 129 126 123 120 115 115 115 131 258 268 273 280 290 297 297 296 291 285 301 304 291 291 298 285 284 287 289 288 288 290 294 289 288 288 289 290 291 292
111 112 112 109 108 113 117 115 113 106 101 108 112 17 298 290 286 289 291 284 274 270 280 292 295 288 286 289 298 287 285 286 289 292 293 292 291 291 291 290 290 290 289 289
116 114 113 111 105 100 105 112 113 108 93 102 155 265 282 291 291 290 292 295 288 282 292 300 302 294 295 295 298 291 289 290 293 293 293 293 292 292 291 290 290 290 290 290
115 114 112 109 106 97 86 90 100 100 75 19 319 291 292 296 297 291 272 271 288 303 307 294 292 297 304 305 299 295 294 294 295 293 292 291 291 291 291 290 290 290 290 288
110 109 108 108 110 105 84 75 75 77 4 303 296 293 290 289 291 294 300 293 297 304 308 295 301 306 309 310 300 298 297 295 294 293 291 290 289 289 289 290 290 290 289 288
105 104 104 103 103 96 75 35 15 351 304 292 285 283 286 296 295 276 276 300 309 308 304 302 308 310 313 311 301 298 295 293 292 291 290 290 289 290 290 290 291 290 288 287
106 105 104 103 95 89 68 4 348 328 313 299 291 287 282 274 283 296 296 297 305 310 305 306 309 311 312 299 297 294 294 291 291 294 292 294 293 292 291 290 290 290 290 289
101 101 98 97 105 100 15 341 323 317 317 314 311 304 298 293 289 293 297 298 298 306 307 302 302 303 300 295 294 294 294 295 296 295 293 293 292 292 292 291 290 289 289 288
89 87 81 64 43 24 354 328 312 308 308 306 306 306 305 305 304 303 302 304 304 303 302 301 300 299 298 298 297 297 296 296 295 294 294 294 293 292 292 291 291 290 289 288
Height
1500 1499 1502 1503 1503 1508 1510 1508 1509 1500 1496 1482 1479 1478 1476 1475 1474 1474 1474 1474 1475 1476 1478 1481 1483 1486 1488 1491 1493 1495 1496 1496 1496 1496 1495 1493 1491 1489 1486 1484 1481 1477 1473 1469
1498 1497 1500 1501 1499 1499 1500 1499 1498 1493 1486 1473 1473 1473 1472 1471 1470 1469 1469 1470 1471 1473 1474 1476 1478 1481 1483 1486 1488 1490 1490 1491 1491 1490 1489 1487 1485 1482 1480 1477 1473 1470 1466 1462
1502 1498 1497 1500 1490 1489 1490 1487 1487 1485 1475 1468 1470 1469 1468 1467 1466 1465 1466 1467 1468 1469 1471 1473 1474 1477 1479 1481 1483 1485 1485 1486 1485 1484 1483 1481 1478 1475 1472 1469 1466 1462 1458 1453
1503 1500 1504 1484 1475 1476 1478 1475 1475 1472 1467 1466 1466 1465 1464 1463 1463 1462 1463 1464 1465 1466 1468 1470 1471 1473 1475 1477 1479 1480 1480 1480 1480 1478 1476 1474 1471 1468 1465 1462 1458 1453 1449 1445
1504 1502 1494 1482 1472 1472 1474 1471 1463 1464 1462 1462 1463 1463 1461 1460 1459 1460 1461 1462 1463 1464 1465 1467 1468 1470 1471 1473 1474 1475 1475 1475 1474 1472 1470 1467 1464 1461 1458 1454 1449 1445 1440 1436
1501 1498 1493 1474 1464 1464 1469 1469 1456 1457 1458 1459 1462 1465 1461 1458 1458 1458 1459 1460 1461 1462 1463 1464 1465 1467 1468 1469 1469 1470 1470 1469 1468 1466 1463 1460 1457 1454 1450 1446 1441 1436 1431 1427
1494 1492 1482 1465 1461 1464 1473 1464 1453 1452 1453 1455 1457 1457 1457 1456 1456 1457 1458 1459 1460 1460 1461 1462 1463 1464 1464 1465 1465 1465 1464 1463 1462 1460 1457 1454 1450 1447 1443 1438 1433 1427 1422 1418
1488 1489 1478 1455 1459 1461 1455 1450 1449 1450 1450 1452 1452 1453 1454 1454 1455 1456 1456 1457 1458 1459 1459 1460 1461 1461 1461 1461 1461 1460 1459 1457 1455 1453 1450 1447 1443 1439 1435 1430 1424 1418 1413 1407
1464 1459 1450 1448 1448 1446 1447 1447 1447 1447 1448 1449 1450 1450 1451 1452 1453 1454 1455 1455 1456 1457 1457 1458 1458 1458 1458 1457 1456 1454 1453 1451 1448 1446 1443 1440 1435 1431 1426 1421 1416 1410 1405 1398
1457 1449 1444 1443 1443 1443 1444 1444 1444 1445 1446 1447 1447 1448 1449 1450 1451 1452 1453 1453 1454 1455 1455 1455 1455 1454 1454 1452 1451 1448 1446 1444 1441 1438 1434 1431 1427 1423 1418 1413 1408 1402 1397 1391
1449 1443 1440 1437 1437 1438 1439 1440 1441 1442 1443 1443 1444 1445 1446 1447 1448 1449 1450 1451 1451 1452 1452 1452 1451 1450 1449 1447 1445 1442 1440 1437 1433 1430 1426 1422 1418 1414 1409 1405 1401 1396 1390 1385
1438 1432 1434 1432 1432 1434 1435 1435 1437 1438 1439 1440 1441 1442 1443 1444 1446 1447 1447 1448 1448 1448 1448 1448 1447 1445 1444 1442 1439 1436 1432 1429 1426 1422 1418 1414 1409 1404 1399 1396 1392 1388 1383 1379
1426 1427 1428 1428 1429 1430 1431 1432 1433 1434 1436 1437 1438 1440 1441 1442 1443 1444 1444 1445 1445 1445 1444 1443 1442 1440 1439 1436 1433 1430 1426 1422 1418 1414 1410 1405 1401 1395 1388 1384 1381 1377 1374 1369
1422 1423 1423 1424 1425 1426 1427 1428 1430 1431 1433 1434 1436 1437 1438 1440 1440 1441 1441 1441 1441 1440 1439 1438 1436 1435 1433 1430 1426 1423 1419 1415 1411 1406 1402 1397 1393 1388 1382 1375 1369 1364 1362 1359
1417 1418 1419 1420 1421 1423 1424 1425 1427 1428 1430 1432 1434 1435 1436 1437 1438 1438 1438 1438 1437 1436 1434 1433 1430 1429 1426 1423 1419 1416 1412 1407 1403 1398 1394 1389 1385 1379 1374 1369 1362 1356 1350 1347
1412 1414 1415 1416 1417 1419 1421 1423 1424 1426 1428 1430 1432 1433 1434 1435 1435 1435 1435 1434 1432 1431 1429 1427 1424 1422 1419 1416 1412 1408 1404 1400 1395 1390 1386 1381 1376 1371 1366 1360 1354 1348 1343 1338
1408 1409 1411 1413 1415 1417 1419 1421 1423 1425 1427 1429 1430 1431 1432 1432 1432 1431 1431 1429 1428 1426 1424 1421 1418 1415 1412 1409 1404 1400 1395 1391 1387 1382 1377 1372 1367 1362 1357 1352 1346 1340 1335 1331
1404 1406 1408 1410 1412 1414 1417 1420 1422 1424 1426 1427 1428 1428 1429 1428 1428 1427 1425 1424 1422 1420 1418 1415 1412 1408 1405 1401 1397 1392 1387 1383 1378 1374 1369 1364 1359 1354 1349 1343 1338 1332 1326 1322
1401 1403 1406 1409 1411 1414 1416 1418 1421 1423 1424 1425 1426 1426 1425 1425 1424 1422 1420 1418 1416 1413 1411 1408 1405 1401 1397 1393 1389 1384 1380 1375 1370 1365 1360 1355 1350 1345 1340 1334 1329 1323 1318 1313
1400 1403 1405 1408 1410 1413 1415 1417 1420 1421 1422 1423 1422 1422 1421 1420 1419 1417 1415 1413 1411 1408 1404 1400 1397 1393 1389 1385 1381 1376 1371 1367 1362 1357 1352 1346 1341 1336 1331 1325 1320 1315 1310 1305
1400 1402 1405 1407 1410 1413 1415 1417 1418 1419 1419 1419 1419 1418 1417 1416 1414 1412 1409 1406 1404 1401 1397 1393 1390 1385 1381 1377 1373 1368 1364 1359 1354 1348 1343 1338 1332 1326 1321 1316 1311 1306 1301 1296
1400 1403 1405 1408 1410 1412 1414 1415 1416 1416 1416 1416 1415 1414 1413 1411 1409 1406 1404 1401 1397 1394 1390 1386 1382 1378 1374 1370 1365 1360 1355 1350 1345 1339 1334 1328 1323 1317 1312 1307 1302 1296 1291 1286
1401 1404 1406 1408 1410 1411 1413 1414 1414 1414 1413 1413 1412 1410 1408 1406 1404 1401 1397 1394 1391 1387 1383 1379 1375 1371 1367 1361 1356 1351 1346 1341 1336 1330 1325 1319 1314 1308 1303 1297 1292 1287 1282 1277
1402 1404 1406 1408 1409 1410 1411 1411 1411 1411 1410 1409 1408 1406 1404 1401 1398 1395 1392 1388 1384 1380 1375 1371 1367 1363 1358 1353 1348 1343 1337 1332 1327 1321 1316 1310 1305 1300 1294 1288 1283 1278 1273 1267
1403 1405 1406 1407 1408 1408 1409 1409 1408 1407 1406 1405 1403 1401 1399 1396 1392 1388 1385 1381 1377 1373 1368 1363 1359 1355 1350 1345 1339 1334 1329 1324 1319 1313 1307 1302 1296 1290 1285 1279 1274 1268 1263 1258
1403 1404 1405 1406 1407 1407 1406 1405 1404 1403 1401 1399 1397 1395 1393 1390 1386 1382 1378 1374 1370 1366 1361 1356 1351 1346 1341 1336 1331 1326 1321 1315 1310 1304 1299 1293 1287 1281 1275 1270 1264 1259 1254 1248
1403 1404 1404 1405 1405 1404 1403 1402 1401 1399 1397 1394 1392 1389 1386 1383 1380 1376 1372 1367 1363 1358 1353 1349 1344 1339 1334 1329 1323 1318 1313 1307 1301 1295 1290 1284 1278 1272 1266 1261 1255 1250 1244 1239